Orbital Elements at Epoch 2459200.5 (2020-Dec-17.0) TDB
Reference: JPL 16 (heliocentric ecliptic J2000)
Element | Value | Uncertainty (1-sigma) | Units |
e | .00936685335617839 | 5.3825e-08 | |
a | 2.778419203062797 | 2.0623e-08 | au |
q | 2.752394157825718 | 1.5138e-07 | au |
i | .255015421825378 | 5.581e-06 | deg |
node | 63.96272577035883 | 0.0013992 | deg |
peri | 82.08795279518648 | 0.0014365 | deg |
M | 342.3793191354262 | 0.00032589 | deg |
tp | 2459283.297127428393 (2021-Mar-09.79712743) | 0.0015313 | TDB |
period | 1691.589905254344 4.63 | 1.8834e-05 5.156e-08 | d yr |
n | .2128175386255164 | 2.3694e-09 | deg/d |
Q | 2.804444248299876 | 2.0816e-08 | au |
|
| | Orbit Determination Parameters
Additional Information
|